This demonstration page uses our WeatherBlox Daily Observations layout. Learn more.

Left ArrowRight Arrow

38.20091, -84.87328

Hourly Observations for July 25, 2017

Temp ( °F °C ) Dew Point ( °F °C ) Humidity (%) Winds ( mph kmh ) Pressure ( in mb ) Visibility ( mi km ) Precip ( " mm )
12:53 am 00:53 Mostly Cloudy 75 23.9 65 18.3 71 71 NE 9 15 30.03 1017 10 16 0.00 0.00
1:53 am 01:53 Cloudy 73 22.8 63 17.2 71 71 NE 9 15 30.05 1018 10 16 0.00 0.00
2:53 am 02:53 Clear 71 21.7 62 16.7 73 73 NE 9 15 30.05 1018 10 16 0.00 0.00
3:53 am 03:53 Mostly Clear 70 21.1 61 16.1 73 73 NE 7 11 30.05 1018 10 16 0.00 0.00
4:53 am 04:53 Mostly Clear 68 20 60 15.6 76 76 NE 8 13 30.07 1018 10 16 0.00 0.00
5:53 am 05:53 Clear 67 19.4 59 15 76 76 NE 7 11 30.09 1019 10 16 0.00 0.00
6:53 am 06:53 Sunny 67 19.4 59 15 76 76 NE 5 7 30.12 1020 10 16 0.00 0.00
7:22 am 07:22 Mostly Cloudy 67 19.4 59 15 76 76 ENE 6 9 30.15 1021 10 16 0.00 0.00
7:30 am 07:30 Mostly Cloudy 67 19.4 59 15 76 76 E 7 11 30.15 1021 10 16 0.00 0.00
7:53 am 07:53 Mostly Sunny 68 20 60 15.6 76 76 ENE 8 13 30.13 1020 10 16 0.00 0.00
8:53 am 08:53 Partly Cloudy 71 21.7 61 16.1 71 71 ENE 8 13 30.14 1021 10 16 0.00 0.00
9:53 am 09:53 Mostly Sunny 73 22.8 61 16.1 66 66 E 7 11 30.14 1021 10 16 0.00 0.00
10:53 am 10:53 Sunny 76 24.4 61 16.1 60 60 E 8 13 30.14 1021 10 16 0.00 0.00
11:53 am 11:53 Sunny 78 25.6 61 16.1 56 56 NE 7 11 30.14 1021 10 16 0.00 0.00
12:53 pm 12:53 Sunny 80 26.7 62 16.7 54 54 VRB 7 11 30.14 1021 10 16 0.00 0.00
1:53 pm 13:53 Partly Cloudy 82 27.8 62 16.7 51 51 NNE 5 7 30.13 1020 10 16 0.00 0.00
2:53 pm 14:53 Mostly Cloudy 81 27.2 63 17.2 54 54 ENE 7 11 30.12 1020 10 16 0.00 0.00
3:53 pm 15:53 Mostly Cloudy 83 28.3 62 16.7 49 49 VRB 5 7 30.12 1020 10 16 0.00 0.00
4:53 pm 16:53 Mostly Cloudy 83 28.3 63 17.2 51 51 ENE 8 13 30.11 1020 10 16 0.00 0.00
5:53 pm 17:53 Partly Cloudy 84 28.9 62 16.7 48 48 NE 7 11 30.11 1020 10 16 0.00 0.00
6:53 pm 18:53 Mostly Sunny 83 28.3 61 16.1 48 48 E 6 9 30.10 1019 10 16 0.00 0.00
7:53 pm 19:53 Mostly Sunny 81 27.2 62 16.7 53 53 ENE 7 11 30.10 1019 10 16 0.00 0.00
8:53 pm 20:53 Sunny 79 26.1 61 16.1 54 54 NE 5 7 30.11 1020 10 16 0.00 0.00
9:53 pm 21:53 Clear 76 24.4 59 15 56 56 NE 5 7 30.12 1020 10 16 0.00 0.00
10:53 pm 22:53 Clear 74 23.3 59 15 60 60 NE 8 13 30.13 1020 10 16 0.00 0.00
11:53 pm 23:53 Clear 72 22.2 60 15.6 66 66 ENE 6 9 30.14 1021 10 16 0.00 0.00

Powered by AerisWeather